When you browse on this site, cookies collect data to enhance your experience and personalize the content and advertising you see.
Visit our Privacy Policy to learn more. By continuing to use the site, you agree to this use of cookies and data.
  • în România
  • Lista ţărilor
  • Pe 7 zile
  • Temperatura apei
  • Hartă satelitară
  • Meteo pe hartă
  • Widget-uri
  • user-avatar
    Intrare

    Meteo pe oră la Wrocimowice

    Astăzi, 20 Mai, Luni

    Timp Temperatura Precipitaţii Vânt Presiune Umiditate
    00:00 +14°C° 0 mm 2 m/s 731 mmHg 92%
    01:00 +14°C° 0 mm 2 m/s 731 mmHg 92%
    02:00 +14°C° 0 mm 2 m/s 730 mmHg 93%
    03:00 +13°C° 0 mm 3 m/s 730 mmHg 94%
    04:00 +13°C° 0 mm 3 m/s 730 mmHg 95%
    05:00 +14°C° 0 mm 4 m/s 730 mmHg 90%
    06:00 +17°C° 0 mm 4 m/s 730 mmHg 86%
    07:00 +19°C° 0 mm 5 m/s 730 mmHg 78%
    08:00 +20°C° 0 mm 5 m/s 730 mmHg 73%
    09:00 +21°C° 0 mm 6 m/s 731 mmHg 67%
    10:00 +22°C° 0 mm 6 m/s 731 mmHg 62%
    11:00 +23°C° 0 mm 6 m/s 731 mmHg 59%
    12:00 +23°C° 0 mm 6 m/s 731 mmHg 56%
    13:00 +22°C° 0 mm 4 m/s 732 mmHg 57%
    14:00 +22°C° 0 mm 4 m/s 732 mmHg 58%
    15:00 +22°C° 0 mm 4 m/s 732 mmHg 60%
    16:00 +22°C° 0 mm 4 m/s 732 mmHg 62%
    17:00 +20°C° 0.1 mm 4 m/s 732 mmHg 68%
    18:00 +19°C° 0.1 mm 3 m/s 731 mmHg 74%
    19:00 +17°C° 0.1 mm 3 m/s 731 mmHg 79%
    20:00 +16°C° 0 mm 3 m/s 731 mmHg 82%
    21:00 +15°C° 0 mm 2 m/s 731 mmHg 84%
    22:00 +14°C° 0 mm 2 m/s 732 mmHg 87%
    23:00 +13°C° 0 mm 1 m/s 731 mmHg 87%

    Mâine, 21 Mai, Marţi

    Timp Temperatura Precipitaţii Vânt Presiune Umiditate
    00:00 +13°C° 0 mm 1 m/s 731 mmHg 87%
    01:00 +12°C° 0 mm 1 m/s 731 mmHg 87%
    02:00 +12°C° 0 mm 1 m/s 731 mmHg 87%
    03:00 +12°C° 0 mm 1 m/s 731 mmHg 87%
    04:00 +12°C° 0 mm 2 m/s 731 mmHg 88%
    05:00 +13°C° 0 mm 2 m/s 731 mmHg 85%
    06:00 +15°C° 0 mm 2 m/s 731 mmHg 81%
    07:00 +16°C° 0 mm 2 m/s 731 mmHg 78%
    08:00 +17°C° 0.3 mm 2 m/s 731 mmHg 77%
    09:00 +18°C° 0.3 mm 3 m/s 731 mmHg 75%
    10:00 +19°C° 0.3 mm 3 m/s 731 mmHg 74%
    11:00 +18°C° 1.2 mm 3 m/s 730 mmHg 76%
    12:00 +18°C° 1.2 mm 3 m/s 730 mmHg 78%
    13:00 +18°C° 1.2 mm 3 m/s 730 mmHg 80%
    14:00 +18°C° 1.3 mm 3 m/s 730 mmHg 82%
    15:00 +17°C° 1.3 mm 3 m/s 730 mmHg 84%
    16:00 +17°C° 1.3 mm 3 m/s 729 mmHg 86%
    17:00 +15°C° 0.9 mm 4 m/s 729 mmHg 86%
    18:00 +15°C° 0.9 mm 4 m/s 729 mmHg 87%
    19:00 +15°C° 0.9 mm 5 m/s 729 mmHg 87%
    20:00 +15°C° 1.2 mm 6 m/s 729 mmHg 88%
    21:00 +14°C° 1.2 mm 6 m/s 729 mmHg 89%
    22:00 +14°C° 1.2 mm 7 m/s 729 mmHg 90%
    23:00 +14°C° 1.1 mm 7 m/s 729 mmHg 91%

    Poimâine, 22 Mai, Miercuri

    Timp Temperatura Precipitaţii Vânt Presiune Umiditate
    00:00 +14°C° 1.1 mm 7 m/s 730 mmHg 91%
    01:00 +14°C° 1.1 mm 7 m/s 730 mmHg 92%
    02:00 +12°C° 1 mm 7 m/s 730 mmHg 92%
    03:00 +13°C° 1 mm 6 m/s 730 mmHg 92%
    04:00 +13°C° 1 mm 6 m/s 730 mmHg 92%
    05:00 +13°C° 0.6 mm 6 m/s 730 mmHg 92%
    06:00 +14°C° 0.6 mm 6 m/s 730 mmHg 91%
    07:00 +14°C° 0.6 mm 6 m/s 730 mmHg 91%
    08:00 +14°C° 0.5 mm 5 m/s 730 mmHg 91%
    09:00 +14°C° 0.5 mm 5 m/s 731 mmHg 91%
    10:00 +14°C° 0.5 mm 4 m/s 731 mmHg 90%
    11:00 +14°C° 0.9 mm 4 m/s 731 mmHg 91%
    12:00 +14°C° 0.9 mm 3 m/s 731 mmHg 92%
    13:00 +14°C° 0.9 mm 3 m/s 731 mmHg 93%
    14:00 +14°C° 0.4 mm 3 m/s 731 mmHg 91%
    15:00 +15°C° 0.4 mm 4 m/s 731 mmHg 89%
    16:00 +15°C° 0.4 mm 4 m/s 731 mmHg 88%
    17:00 +15°C° 1.3 mm 5 m/s 732 mmHg 89%
    18:00 +14°C° 1.3 mm 5 m/s 732 mmHg 90%
    19:00 +14°C° 1.3 mm 6 m/s 732 mmHg 91%
    20:00 +14°C° 0.8 mm 6 m/s 732 mmHg 92%
    21:00 +14°C° 0.8 mm 6 m/s 733 mmHg 92%
    22:00 +14°C° 0.8 mm 7 m/s 733 mmHg 93%
    23:00 +14°C° 0.2 mm 7 m/s 733 mmHg 94%

    23 Mai, Joi

    Timp Temperatura Precipitaţii Vânt Presiune Umiditate
    00:00 +14°C° 0.2 mm 6 m/s 734 mmHg 94%
    01:00 +14°C° 0.2 mm 6 m/s 734 mmHg 95%
    02:00 +13°C° 0.5 mm 6 m/s 734 mmHg 95%
    03:00 +13°C° 0.5 mm 6 m/s 735 mmHg 95%
    04:00 +13°C° 0.5 mm 6 m/s 735 mmHg 95%
    05:00 +13°C° 1 mm 6 m/s 735 mmHg 95%
    06:00 +13°C° 1 mm 6 m/s 736 mmHg 94%
    07:00 +13°C° 1 mm 6 m/s 736 mmHg 94%
    08:00 +11°C° 0.9 mm 7 m/s 737 mmHg 94%
    09:00 +11°C° 0.9 mm 7 m/s 737 mmHg 93%
    10:00 +10°C° 0.9 mm 7 m/s 737 mmHg 93%
    11:00 +10°C° 0.2 mm 7 m/s 738 mmHg 93%
    12:00 +10°C° 0.2 mm 7 m/s 738 mmHg 92%
    13:00 +10°C° 0.2 mm 7 m/s 738 mmHg 92%
    14:00 +10°C° 0.1 mm 7 m/s 739 mmHg 90%
    15:00 +10°C° 0.1 mm 6 m/s 739 mmHg 89%
    16:00 +10°C° 0.1 mm 6 m/s 739 mmHg 88%
    17:00 +10°C° 0 mm 5 m/s 739 mmHg 87%
    18:00 +10°C° 0 mm 4 m/s 739 mmHg 86%
    19:00 +10°C° 0 mm 4 m/s 739 mmHg 85%
    20:00 +10°C° 0 mm 4 m/s 739 mmHg 85%
    21:00 +10°C° 0 mm 3 m/s 739 mmHg 84%
    22:00 +10°C° 0 mm 3 m/s 739 mmHg 84%
    23:00 +10°C° 0 mm 4 m/s 739 mmHg 84%

    24 Mai, Vineri

    Timp Temperatura Precipitaţii Vânt Presiune Umiditate
    00:00 +10°C° 0 mm 4 m/s 739 mmHg 84%
    01:00 +10°C° 0 mm 4 m/s 739 mmHg 84%
    02:00 +9°C° 0 mm 3 m/s 739 mmHg 86%
    03:00 +9°C° 0 mm 3 m/s 739 mmHg 87%
    04:00 +8°C° 0 mm 3 m/s 739 mmHg 89%
    05:00 +9°C° 0 mm 3 m/s 739 mmHg 84%
    06:00 +10°C° 0 mm 3 m/s 739 mmHg 78%
    07:00 +11°C° 0 mm 3 m/s 739 mmHg 73%
    08:00 +13°C° 0 mm 3 m/s 738 mmHg 67%
    09:00 +14°C° 0 mm 4 m/s 738 mmHg 62%
    10:00 +15°C° 0 mm 4 m/s 738 mmHg 56%
    11:00 +17°C° 0 mm 4 m/s 738 mmHg 54%
    12:00 +17°C° 0 mm 3 m/s 737 mmHg 52%
    13:00 +18°C° 0 mm 3 m/s 737 mmHg 50%
    14:00 +18°C° 0 mm 3 m/s 737 mmHg 52%
    15:00 +18°C° 0 mm 3 m/s 736 mmHg 53%
    16:00 +18°C° 0 mm 3 m/s 736 mmHg 54%
    17:00 +17°C° 0 mm 2 m/s 736 mmHg 60%
    18:00 +15°C° 0 mm 2 m/s 736 mmHg 65%
    19:00 +14°C° 0 mm 1 m/s 735 mmHg 71%
    20:00 +13°C° 0 mm 1 m/s 735 mmHg 73%
    21:00 +12°C° 0 mm 1 m/s 736 mmHg 74%
    22:00 +11°C° 0 mm 1 m/s 736 mmHg 76%
    23:00 +10°C° 0 mm 1 m/s 736 mmHg 78%

    25 Mai, Sâmbătă

    Timp Temperatura Precipitaţii Vânt Presiune Umiditate
    00:00 +10°C° 0 mm 1 m/s 736 mmHg 80%
    01:00 +9°C° 0 mm 1 m/s 735 mmHg 83%
    02:00 +9°C° 0 mm 1 m/s 735 mmHg 83%
    03:00 +9°C° 0 mm 1 m/s 735 mmHg 84%
    04:00 +7°C° 0 mm 0 m/s 735 mmHg 84%
    05:00 +10°C° 0 mm 1 m/s 735 mmHg 80%
    06:00 +12°C° 0 mm 1 m/s 735 mmHg 76%
    07:00 +14°C° 0 mm 1 m/s 735 mmHg 71%
    08:00 +16°C° 0 mm 1 m/s 735 mmHg 67%
    09:00 +18°C° 0 mm 1 m/s 735 mmHg 62%
    10:00 +19°C° 0 mm 1 m/s 735 mmHg 57%
    11:00 +20°C° 0 mm 1 m/s 735 mmHg 55%
    12:00 +21°C° 0 mm 1 m/s 735 mmHg 52%
    13:00 +22°C° 0 mm 1 m/s 735 mmHg 49%
    14:00 +22°C° 0 mm 1 m/s 735 mmHg 50%
    15:00 +22°C° 0 mm 1 m/s 734 mmHg 50%
    16:00 +23°C° 0 mm 1 m/s 734 mmHg 50%
    17:00 +21°C° 0 mm 1 m/s 734 mmHg 56%
    18:00 +20°C° 0 mm 1 m/s 734 mmHg 63%
    19:00 +18°C° 0 mm 1 m/s 734 mmHg 70%
    20:00 +16°C° 0 mm 1 m/s 735 mmHg 75%
    21:00 +15°C° 0 mm 2 m/s 735 mmHg 80%
    22:00 +14°C° 0 mm 2 m/s 735 mmHg 84%
    23:00 +13°C° 0 mm 3 m/s 735 mmHg 88%
    Arată mai mult